Terminal Aerodrome Forecast
Issued by NWS Shreveport, LA

Home | Current Version | Previous Version | Text Only | Print | Product List | Glossary On
Versions: 1 2 3 4 5 6 7 8 9 10 11 12
000
FTUS44 KSHV 042320
TAFTXK
TAF
KTXK 042320Z 0500/0524 15005KT P6SM SCT150 BKN250
     FM051400 23008KT P6SM BKN130=

USA.gov is the U.S. government's official web portal to all federal, state and local government web resources and services.